FW8778 Weather Reports


time (UTC)temp
C
wind
direction
speed
KPH
gust
KPH
rain 1hr
cm
rain 24hr
cm
rain mn
cm
humidity
%
barometer
mb
20220629030047 28 359 0.0 3.2 0.00 0.00 0.00 37 1011.1
20220629024547 28 359 0.0 3.2 0.00 0.00 0.00 36 1011.3
20220629023049 27 359 0.0 6.4 0.00 0.00 0.00 36 1011.1
20220629021544 27 359 0.0 1.6 0.00 0.00 0.00 41 1010.9
20220629020043 26 359 0.0 1.6 0.00 0.00 0.00 41 1011.1
20220629014542 27 359 0.0 3.2 0.00 0.00 0.00 40 1011.2
20220629013038 26 359 0.0 4.8 0.00 0.00 0.00 41 1011.4
20220629011544 27 359 0.0 3.2 0.00 0.00 0.00 41 1011.5
20220629010036 27 359 1.6 4.8 0.00 0.00 0.00 41 1011.7
20220629004546 27 359 0.0 3.2 0.00 0.00 0.00 41 1011.6
20220629003037 27 359 1.6 4.8 0.00 0.00 0.00 40 1011.6
20220629001537 28 359 1.6 4.8 0.00 0.00 0.00 39 1011.6
20220629000134 28 359 0.0 4.8 0.00 0.00 0.00 38 1011.6
20220628234530 27 359 0.0 1.6 0.00 0.00 0.00 40 1011.7
20220628233028 27 359 0.0 3.2 0.00 0.00 0.00 40 1011.8
20220628231528 27 359 0.0 0.0 0.00 0.00 0.00 41 1011.9
20220628230026 28 359 0.0 0.0 0.00 0.00 0.00 40 1012.0
20220628224524 27 359 0.0 0.0 0.00 0.00 0.00 40 1012.1
20220628223027 27 359 0.0 0.0 0.00 0.00 0.00 40 1012.2
20220628221523 27 359 0.0 3.2 0.00 0.00 0.00 39 1012.5
20220628220017 27 359 0.0 1.6 0.00 0.00 0.00 39 1012.5
20220628214512 27 359 0.0 0.0 0.00 0.00 0.00 39 1012.4
20220628213011 27 359 0.0 0.0 0.00 0.00 0.00 39 1012.6
20220628211512 27 359 0.0 0.0 0.00 0.00 0.00 39 1012.8
20220628210017 27 359 0.0 0.0 0.00 0.00 0.00 40 1012.9
20220628204512 27 359 0.0 0.0 0.00 0.00 0.00 40 1012.9
20220628203011 27 359 0.0 0.0 0.00 0.00 0.00 40 1012.8
20220628201514 28 359 0.0 0.0 0.00 0.00 0.00 40 1012.7
20220628200009 28 359 0.0 0.0 0.00 0.00 0.00 42 1012.7
20220628194509 28 359 0.0 0.0 0.00 0.00 0.00 42 1012.6
20220628193008 28 359 0.0 1.6 0.00 0.00 0.00 44 1012.6
20220628191508 28 359 0.0 0.0 0.00 0.00 0.00 42 1012.4
20220628190008 28 359 0.0 1.6 0.00 0.00 0.00 45 1012.4
20220628184510 28 359 0.0 0.0 0.00 0.00 0.00 44 1012.3
20220628183009 28 359 0.0 1.6 0.00 0.00 0.00 52 1012.2
20220628181506 28 359 0.0 0.0 0.00 0.00 0.00 57 1012.1
20220628180008 28 359 0.0 0.0 0.00 0.00 0.00 59 1012.0
20220628174504 30 359 0.0 0.0 0.00 0.00 0.00 57 1012.1
20220628173002 31 359 0.0 0.0 0.00 0.00 0.00 54 1012.2
20220628171502 31 359 0.0 0.0 0.00 0.00 0.00 53 1012.2
20220628170001 31 359 0.0 0.0 0.00 0.00 0.00 52 1012.3
20220628164600 31 359 0.0 0.0 0.00 0.00 0.00 51 1012.3
20220628163100 32 359 0.0 0.0 0.00 0.00 0.00 50 1012.3
20220628161559 32 359 0.0 0.0 0.00 0.00 0.00 50 1012.4
20220628160057 32 359 0.0 0.0 0.00 0.00 0.00 50 1012.5
20220628154556 32 359 0.0 0.0 0.00 0.00 0.00 51 1012.6
20220628153057 31 359 0.0 0.0 0.00 0.00 0.00 52 1012.8
20220628151603 32 359 0.0 1.6 0.00 0.00 0.00 52 1012.8
20220628150053 32 359 0.0 3.2 0.00 0.00 0.00 52 1012.9
20220628144553 33 359 0.0 1.6 0.00 0.00 0.00 50 1012.9
20220628143051 33 359 0.0 1.6 0.00 0.00 0.00 49 1012.9
20220628141553 33 359 0.0 1.6 0.00 0.00 0.00 48 1013.0
20220628140049 33 359 0.0 1.6 0.00 0.00 0.00 46 1013.0
20220628134556 33 359 0.0 0.0 0.00 0.00 0.00 44 1012.9
20220628133047 33 359 0.0 1.6 0.00 0.00 0.00 43 1013.1
20220628131546 34 359 0.0 0.0 0.00 0.00 0.00 41 1013.1
20220628130045 33 359 0.0 0.0 0.00 0.00 0.00 42 1013.0
20220628124544 33 359 0.0 0.0 0.00 0.00 0.00 42 1013.2
20220628123043 33 359 0.0 1.6 0.00 0.00 0.00 44 1013.4
20220628121542 33 359 0.0 1.6 0.00 0.00 0.00 43 1013.3
20220628120042 33 359 0.0 1.6 0.00 0.00 0.00 43 1013.4
20220628114541 33 359 0.0 4.8 0.00 0.00 0.00 41 1013.6
20220628113043 35 359 0.0 3.2 0.00 0.00 0.00 35 1013.3
20220628111546 35 359 0.0 8.0 0.00 0.00 0.00 28 1013.2
20220628110046 35 359 0.0 4.8 0.00 0.00 0.00 35 1013.2
20220628104534 34 359 0.0 4.8 0.00 0.00 0.00 29 1013.3
20220628103034 34 359 0.0 3.2 0.00 0.00 0.00 31 1013.3
20220628101530 33 359 0.0 3.2 0.00 0.00 0.00 34 1013.5
20220628100031 33 359 0.0 3.2 0.00 0.00 0.00 36 1013.6
20220628094529 33 359 0.0 3.2 0.00 0.00 0.00 35 1013.5
20220628093026 33 359 0.0 3.2 0.00 0.00 0.00 32 1013.4
20220628091523 33 359 0.0 3.2 0.00 0.00 0.00 31 1013.6
20220628090020 32 359 0.0 1.6 0.00 0.00 0.00 33 1013.6
20220628084532 32 359 0.0 3.2 0.00 0.00 0.00 35 1013.7
20220628083020 32 359 1.6 8.0 0.00 0.00 0.00 32 1013.8
20220628081517 32 359 0.0 0.0 0.00 0.00 0.00 36 1013.9
20220628080013 31 359 0.0 0.0 0.00 0.00 0.00 42 1013.9
20220628074512 31 359 0.0 0.0 0.00 0.00 0.00 42 1013.9
20220628073011 31 359 0.0 0.0 0.00 0.00 0.00 40 1014.1
20220628071513 31 359 0.0 1.6 0.00 0.00 0.00 38 1014.1
20220628070007 30 359 0.0 1.6 0.00 0.00 0.00 38 1014.2
20220628064507 30 359 0.0 1.6 0.00 0.00 0.00 37 1014.2
20220628063006 30 359 0.0 0.0 0.00 0.00 0.00 37 1014.1
20220628061503 29 359 0.0 0.0 0.00 0.00 0.00 36 1014.0
20220628060100 30 359 0.0 0.0 0.00 0.00 0.00 37 1014.0
20220628054558 28 359 0.0 0.0 0.00 0.00 0.00 37 1013.9
20220628053107 28 359 0.0 0.0 0.00 0.00 0.00 37 1013.8
20220628051552 27 359 0.0 0.0 0.00 0.00 0.00 37 1013.7
20220628050051 26 359 0.0 0.0 0.00 0.00 0.00 35 1013.8
20220628044551 26 359 0.0 0.0 0.00 0.00 0.00 35 1013.8
20220628043054 26 359 0.0 0.0 0.00 0.00 0.00 35 1013.6
20220628041550 26 359 0.0 0.0 0.00 0.00 0.00 35 1013.5
20220628040048 26 359 0.0 0.0 0.00 0.00 0.00 34 1013.5
20220628034548 26 359 0.0 0.0 0.00 0.00 0.00 34 1013.5
20220628033048 26 359 0.0 0.0 0.00 0.00 0.00 34 1013.4
20220628031547 26 359 0.0 0.0 0.00 0.00 0.00 34 1013.4